Time,TemperatureF,DewpointF,PressureIn,WindDirection,WindDirectionDegrees,WindSpeedMPH,WindSpeedGustMPH,Humidity,HourlyPrecipIn,Conditions,Clouds,dailyrainin,SoftwareType,DateUTC
2013-07-21 00:01:00,74.1,71.0,29.71,NNE,30,0.0,1.0,90,0.00,,,0.00,VWS V14.01,2013-07-21 04:01:00,
2013-07-21 00:02:00,74.1,71.0,29.71,NNE,30,0.0,0.0,90,0.00,,,0.00,VWS V14.01,2013-07-21 04:02:00,
2013-07-21 00:04:00,74.0,70.9,29.71,NNE,32,0.0,1.0,90,0.00,,,0.00,VWS V14.01,2013-07-21 04:04:00,
2013-07-21 00:09:00,73.9,71.1,29.71,NNE,32,0.0,0.0,91,0.00,,,0.00,VWS V14.01,2013-07-21 04:09:00,
2013-07-21 00:11:00,73.8,71.0,29.70,NNE,32,0.0,0.0,91,0.00,,,0.00,VWS V14.01,2013-07-21 04:11:00,
2013-07-21 00:16:00,73.7,70.9,29.70,NNE,32,0.0,0.0,91,0.00,,,0.00,VWS V14.01,2013-07-21 04:16:00,
2013-07-21 00:21:00,73.6,71.1,29.70,NNE,32,0.0,0.0,92,0.00,,,0.00,VWS V14.01,2013-07-21 04:21:00,
2013-07-21 00:26:00,73.6,71.1,29.71,NNE,32,0.0,0.0,92,0.00,,,0.00,VWS V14.01,2013-07-21 04:26:00,
2013-07-21 00:31:00,73.5,71.0,29.70,NNE,32,0.0,0.0,92,0.00,,,0.00,VWS V14.01,2013-07-21 04:31:00,
2013-07-21 00:36:00,73.6,71.1,29.70,NNE,32,0.0,0.0,92,0.00,,,0.00,VWS V14.01,2013-07-21 04:36:00,
2013-07-21 00:41:00,73.5,71.0,29.70,NNE,32,0.0,0.0,92,0.00,,,0.00,VWS V14.01,2013-07-21 04:41:00,
2013-07-21 00:46:00,73.4,71.3,29.70,NNE,32,0.0,1.0,93,0.00,,,0.00,VWS V14.01,2013-07-21 04:46:00,
2013-07-21 00:51:00,73.6,71.1,29.70,NNE,32,0.0,1.0,92,0.00,,,0.00,VWS V14.01,2013-07-21 04:51:00,
2013-07-21 00:56:00,73.8,71.0,29.70,NNE,32,3.0,3.0,91,0.00,,,0.00,VWS V14.01,2013-07-21 04:56:00,
2013-07-21 01:01:00,73.9,71.1,29.71,NNE,32,0.0,0.0,91,0.00,,,0.00,VWS V14.01,2013-07-21 05:01:00,
2013-07-21 01:06:00,74.0,71.2,29.72,NNE,32,0.0,1.0,91,0.00,,,0.00,VWS V14.01,2013-07-21 05:06:00,
2013-07-21 01:11:00,74.2,71.4,29.72,NNE,31,0.0,0.0,91,0.00,,,0.00,VWS V14.01,2013-07-21 05:11:00,
2013-07-21 01:16:00,74.3,71.2,29.72,NNE,31,0.0,0.0,90,0.00,,,0.00,VWS V14.01,2013-07-21 05:16:00,
2013-07-21 01:21:00,74.3,71.2,29.73,NNE,31,0.0,0.0,90,0.00,,,0.00,VWS V14.01,2013-07-21 05:21:00,
2013-07-21 01:26:00,74.3,71.2,29.73,NNE,30,0.0,0.0,90,0.00,,,0.00,VWS V14.01,2013-07-21 05:26:00,
2013-07-21 01:31:00,74.3,71.2,29.74,NNE,31,0.0,0.0,90,0.00,,,0.00,VWS V14.01,2013-07-21 05:31:00,
2013-07-21 01:36:00,74.2,71.1,29.75,NNE,30,0.0,0.0,90,0.00,,,0.00,VWS V14.01,2013-07-21 05:36:00,
2013-07-21 01:41:00,74.1,71.0,29.75,NNE,31,0.0,0.0,90,0.00,,,0.00,VWS V14.01,2013-07-21 05:41:00,
2013-07-21 01:46:00,74.0,70.9,29.75,NNE,32,0.0,0.0,90,0.00,,,0.00,VWS V14.01,2013-07-21 05:46:00,
2013-07-21 01:51:00,73.9,70.8,29.75,NNE,30,0.0,0.0,90,0.00,,,0.00,VWS V14.01,2013-07-21 05:51:00,
2013-07-21 01:56:00,73.8,71.0,29.75,NNE,31,0.0,1.0,91,0.00,,,0.00,VWS V14.01,2013-07-21 05:56:00,
2013-07-21 02:01:00,73.7,70.9,29.75,NNE,31,0.0,0.0,91,0.00,,,0.00,VWS V14.01,2013-07-21 06:01:00,
2013-07-21 02:06:00,73.6,70.8,29.75,NNE,32,0.0,0.0,91,0.00,,,0.00,VWS V14.01,2013-07-21 06:06:00,
2013-07-21 02:09:00,73.6,70.8,29.75,NNE,32,0.0,0.0,91,0.00,,,0.00,VWS V14.01,2013-07-21 06:09:00,
2013-07-21 02:14:00,73.6,70.8,29.75,NNE,32,0.0,0.0,91,0.00,,,0.00,VWS V14.01,2013-07-21 06:14:00,
2013-07-21 02:19:00,73.6,70.8,29.74,NNE,32,0.0,0.0,91,0.00,,,0.00,VWS V14.01,2013-07-21 06:19:00,
2013-07-21 02:24:00,73.5,70.7,29.74,NNE,31,0.0,1.0,91,0.00,,,0.00,VWS V14.01,2013-07-21 06:24:00,
2013-07-21 02:29:00,73.5,70.7,29.74,NNE,31,0.0,1.0,91,0.00,,,0.00,VWS V14.01,2013-07-21 06:29:00,
2013-07-21 02:34:00,73.4,70.9,29.73,NNE,30,0.0,0.0,92,0.00,,,0.00,VWS V14.01,2013-07-21 06:34:00,
2013-07-21 02:39:00,73.3,70.8,29.73,NNE,32,0.0,0.0,92,0.00,,,0.00,VWS V14.01,2013-07-21 06:39:00,
2013-07-21 02:44:00,73.3,70.8,29.74,NNE,32,0.0,0.0,92,0.00,,,0.00,VWS V14.01,2013-07-21 06:44:00,
2013-07-21 02:49:00,73.3,70.8,29.73,NNE,32,0.0,0.0,92,0.00,,,0.00,VWS V14.01,2013-07-21 06:49:00,
2013-07-21 02:55:00,73.3,70.8,29.73,NNE,31,1.0,1.0,92,0.00,,,0.00,VWS V14.01,2013-07-21 06:55:00,
2013-07-21 03:00:00,73.2,70.7,29.73,NNE,32,0.0,0.0,92,0.00,,,0.00,VWS V14.01,2013-07-21 07:00:00,
2013-07-21 03:05:00,73.2,70.7,29.73,NNE,31,0.0,1.0,92,0.00,,,0.00,VWS V14.01,2013-07-21 07:05:00,
2013-07-21 03:10:00,73.1,70.6,29.73,NNE,32,0.0,0.0,92,0.00,,,0.00,VWS V14.01,2013-07-21 07:10:00,
2013-07-21 03:15:00,73.0,70.9,29.73,NNE,32,0.0,0.0,93,0.00,,,0.00,VWS V14.01,2013-07-21 07:15:00,
2013-07-21 03:20:00,72.9,70.8,29.73,NNE,32,0.0,0.0,93,0.00,,,0.00,VWS V14.01,2013-07-21 07:20:00,
2013-07-21 03:25:00,72.8,70.7,29.72,NNE,32,0.0,0.0,93,0.00,,,0.00,VWS V14.01,2013-07-21 07:25:00,
2013-07-21 03:30:00,72.7,70.6,29.72,NNE,32,0.0,0.0,93,0.00,,,0.00,VWS V14.01,2013-07-21 07:30:00,
2013-07-21 03:35:00,72.6,70.5,29.72,NNE,31,0.0,0.0,93,0.00,,,0.00,VWS V14.01,2013-07-21 07:35:00,
2013-07-21 03:40:00,72.4,70.6,29.72,NNE,30,0.0,0.0,94,0.00,,,0.00,VWS V14.01,2013-07-21 07:40:00,
2013-07-21 03:45:00,72.3,70.5,29.72,NNE,30,0.0,0.0,94,0.00,,,0.00,VWS V14.01,2013-07-21 07:45:00,
2013-07-21 03:50:00,72.2,70.4,29.72,NNE,31,0.0,0.0,94,0.00,,,0.00,VWS V14.01,2013-07-21 07:50:00,
2013-07-21 03:55:00,72.1,70.3,29.72,NNE,31,0.0,0.0,94,0.00,,,0.00,VWS V14.01,2013-07-21 07:55:00,
2013-07-21 04:00:00,71.9,70.1,29.72,NNE,31,0.0,0.0,94,0.00,,,0.00,VWS V14.01,2013-07-21 08:00:00,
2013-07-21 04:05:00,71.8,70.3,29.73,NNE,31,0.0,0.0,95,0.00,,,0.00,VWS V14.01,2013-07-21 08:05:00,
2013-07-21 04:10:00,71.7,70.2,29.73,NNE,31,0.0,0.0,95,0.00,,,0.00,VWS V14.01,2013-07-21 08:10:00,
2013-07-21 04:15:00,71.6,70.1,29.73,NNE,31,0.0,0.0,95,0.00,,,0.00,VWS V14.01,2013-07-21 08:15:00,
2013-07-21 04:20:00,71.5,70.0,29.72,NNE,31,0.0,0.0,95,0.00,,,0.00,VWS V14.01,2013-07-21 08:20:00,
2013-07-21 04:25:00,71.4,70.2,29.72,NNE,31,0.0,0.0,96,0.00,,,0.00,VWS V14.01,2013-07-21 08:25:00,
2013-07-21 04:30:00,71.3,69.8,29.72,NNE,30,0.0,0.0,95,0.00,,,0.00,VWS V14.01,2013-07-21 08:30:00,
2013-07-21 04:35:00,71.3,70.1,29.73,NNE,31,0.0,0.0,96,0.00,,,0.00,VWS V14.01,2013-07-21 08:35:00,
2013-07-21 04:40:00,71.3,70.1,29.74,NNE,31,0.0,0.0,96,0.00,,,0.00,VWS V14.01,2013-07-21 08:40:00,
2013-07-21 04:45:00,71.2,70.0,29.74,NNE,32,0.0,0.0,96,0.00,,,0.00,VWS V14.01,2013-07-21 08:45:00,
2013-07-21 04:50:00,71.2,70.3,29.74,NNE,31,0.0,0.0,97,0.00,,,0.00,VWS V14.01,2013-07-21 08:50:00,
2013-07-21 04:55:00,71.2,70.3,29.74,NNE,31,0.0,0.0,97,0.00,,,0.00,VWS V14.01,2013-07-21 08:55:00,
2013-07-21 05:00:00,71.2,70.3,29.74,NNE,31,0.0,0.0,97,0.00,,,0.00,VWS V14.01,2013-07-21 09:00:00,
2013-07-21 05:05:00,71.1,70.2,29.74,NNE,30,0.0,0.0,97,0.00,,,0.00,VWS V14.01,2013-07-21 09:05:00,
2013-07-21 05:10:00,71.0,70.1,29.74,NNE,31,0.0,0.0,97,0.00,,,0.00,VWS V14.01,2013-07-21 09:10:00,
2013-07-21 05:15:00,71.1,70.2,29.74,NNE,32,0.0,0.0,97,0.00,,,0.00,VWS V14.01,2013-07-21 09:15:00,
2013-07-21 05:20:00,71.2,70.3,29.75,NNE,31,0.0,0.0,97,0.00,,,0.00,VWS V14.01,2013-07-21 09:20:00,
2013-07-21 05:25:00,71.3,70.4,29.75,NNE,31,0.0,0.0,97,0.00,,,0.00,VWS V14.01,2013-07-21 09:25:00,
2013-07-21 05:30:00,71.2,70.3,29.74,NNE,30,0.0,0.0,97,0.00,,,0.00,VWS V14.01,2013-07-21 09:30:00,
2013-07-21 05:35:00,71.2,70.3,29.75,NNE,31,0.0,0.0,97,0.00,,,0.00,VWS V14.01,2013-07-21 09:35:00,
2013-07-21 05:40:00,71.2,70.3,29.74,NNE,32,0.0,0.0,97,0.00,,,0.00,VWS V14.01,2013-07-21 09:40:00,
2013-07-21 05:45:00,71.2,70.3,29.74,NNE,32,0.0,0.0,97,0.00,,,0.00,VWS V14.01,2013-07-21 09:45:00,
2013-07-21 05:50:00,71.2,70.3,29.75,NNE,32,0.0,0.0,97,0.00,,,0.00,VWS V14.01,2013-07-21 09:50:00,
2013-07-21 05:55:00,71.1,70.2,29.74,NNE,32,0.0,0.0,97,0.00,,,0.00,VWS V14.01,2013-07-21 09:55:00,
2013-07-21 06:01:00,71.1,70.2,29.75,NNE,32,0.0,0.0,97,0.00,,,0.00,VWS V14.01,2013-07-21 10:01:00,
2013-07-21 06:06:00,71.0,70.1,29.75,NNE,32,0.0,0.0,97,0.00,,,0.00,VWS V14.01,2013-07-21 10:06:00,
2013-07-21 06:11:00,71.0,70.1,29.75,NNE,31,0.0,0.0,97,0.00,,,0.00,VWS V14.01,2013-07-21 10:11:00,
2013-07-21 06:16:00,71.0,70.1,29.75,NNE,31,0.0,0.0,97,0.00,,,0.00,VWS V14.01,2013-07-21 10:16:00,
2013-07-21 06:21:00,70.9,70.0,29.75,NNE,31,0.0,0.0,97,0.00,,,0.00,VWS V14.01,2013-07-21 10:21:00,
2013-07-21 06:26:00,70.9,70.0,29.75,NNE,30,0.0,0.0,97,0.00,,,0.00,VWS V14.01,2013-07-21 10:26:00,
2013-07-21 06:31:00,70.9,70.0,29.76,NNE,30,0.0,0.0,97,0.00,,,0.00,VWS V14.01,2013-07-21 10:31:00,
2013-07-21 06:36:00,70.9,70.0,29.76,NNE,30,0.0,0.0,97,0.00,,,0.00,VWS V14.01,2013-07-21 10:36:00,
2013-07-21 06:41:00,70.9,70.3,29.76,NNE,30,0.0,0.0,98,0.00,,,0.00,VWS V14.01,2013-07-21 10:41:00,
2013-07-21 06:46:00,71.0,70.4,29.76,NNE,31,0.0,1.0,98,0.00,,,0.00,VWS V14.01,2013-07-21 10:46:00,
2013-07-21 06:51:00,71.0,70.4,29.77,NNE,32,1.0,1.0,98,0.00,,,0.00,VWS V14.01,2013-07-21 10:51:00,
2013-07-21 06:56:00,71.1,70.5,29.77,NNE,31,0.0,0.0,98,0.00,,,0.00,VWS V14.01,2013-07-21 10:56:00,
2013-07-21 07:01:00,71.2,70.6,29.77,NNE,31,0.0,1.0,98,0.00,,,0.00,VWS V14.01,2013-07-21 11:01:00,
2013-07-21 07:06:00,71.2,70.6,29.76,NNE,31,0.0,0.0,98,0.00,,,0.00,VWS V14.01,2013-07-21 11:06:00,
2013-07-21 07:11:00,71.2,70.6,29.76,NNE,31,0.0,0.0,98,0.00,,,0.00,VWS V14.01,2013-07-21 11:11:00,
2013-07-21 07:16:00,71.3,70.7,29.76,NNE,32,0.0,0.0,98,0.00,,,0.00,VWS V14.01,2013-07-21 11:16:00,
2013-07-21 07:21:00,71.5,70.9,29.77,NNE,31,0.0,1.0,98,0.00,,,0.00,VWS V14.01,2013-07-21 11:21:00,
2013-07-21 07:26:00,71.5,70.9,29.77,NNE,31,0.0,0.0,98,0.00,,,0.00,VWS V14.01,2013-07-21 11:26:00,
2013-07-21 07:31:00,71.5,70.6,29.77,NNE,31,0.0,1.0,97,0.00,,,0.00,VWS V14.01,2013-07-21 11:31:00,
2013-07-21 07:36:00,71.6,70.7,29.77,NNE,32,1.0,4.0,97,0.00,,,0.00,VWS V14.01,2013-07-21 11:36:00,
2013-07-21 07:41:00,71.8,71.2,29.77,NNE,32,1.0,1.0,98,0.00,,,0.00,VWS V14.01,2013-07-21 11:41:00,
2013-07-21 07:46:00,72.0,71.1,29.77,NNE,32,0.0,0.0,97,0.00,,,0.00,VWS V14.01,2013-07-21 11:46:00,
2013-07-21 07:51:00,72.1,71.2,29.77,NNE,30,2.0,3.0,97,0.00,,,0.00,VWS V14.01,2013-07-21 11:51:00,
2013-07-21 07:56:00,72.2,71.3,29.77,NNE,31,0.0,1.0,97,0.00,,,0.00,VWS V14.01,2013-07-21 11:56:00,
2013-07-21 08:01:00,72.3,71.4,29.77,NNE,30,0.0,0.0,97,0.00,,,0.00,VWS V14.01,2013-07-21 12:01:00,
2013-07-21 08:06:00,72.4,71.5,29.77,NNE,30,1.0,1.0,97,0.00,,,0.00,VWS V14.01,2013-07-21 12:06:00,
2013-07-21 08:11:00,72.6,71.7,29.77,NNE,30,0.0,1.0,97,0.00,,,0.00,VWS V14.01,2013-07-21 12:11:00,
2013-07-21 08:16:00,72.8,71.6,29.77,NNE,30,0.0,0.0,96,0.00,,,0.00,VWS V14.01,2013-07-21 12:16:00,
2013-07-21 08:21:00,73.1,71.9,29.77,NNE,30,0.0,0.0,96,0.00,,,0.00,VWS V14.01,2013-07-21 12:21:00,
2013-07-21 08:26:00,73.3,72.1,29.77,NNE,29,0.0,1.0,96,0.00,,,0.00,VWS V14.01,2013-07-21 12:26:00,
2013-07-21 08:31:00,73.6,72.1,29.77,NNE,30,0.0,0.0,95,0.00,,,0.00,VWS V14.01,2013-07-21 12:31:00,
2013-07-21 08:36:00,73.9,72.4,29.77,NNE,30,0.0,0.0,95,0.00,,,0.00,VWS V14.01,2013-07-21 12:36:00,
2013-07-21 08:41:00,74.1,72.3,29.77,NNE,30,1.0,1.0,94,0.00,,,0.00,VWS V14.01,2013-07-21 12:41:00,
2013-07-21 08:46:00,74.5,72.7,29.77,NNE,29,0.0,0.0,94,0.00,,,0.00,VWS V14.01,2013-07-21 12:46:00,
2013-07-21 08:51:00,74.8,72.3,29.77,NNE,30,0.0,0.0,92,0.00,,,0.00,VWS V14.01,2013-07-21 12:51:00,
2013-07-21 08:56:00,74.9,72.4,29.77,NNE,30,0.0,0.0,92,0.00,,,0.00,VWS V14.01,2013-07-21 12:56:00,
2013-07-21 09:02:00,75.3,72.8,29.77,NNE,30,0.0,1.0,92,0.00,,,0.00,VWS V14.01,2013-07-21 13:02:00,
2013-07-21 09:07:00,75.5,72.7,29.77,NNE,30,0.0,0.0,91,0.00,,,0.00,VWS V14.01,2013-07-21 13:07:00,
2013-07-21 09:12:00,75.7,72.6,29.77,NNE,29,0.0,0.0,90,0.00,,,0.00,VWS V14.01,2013-07-21 13:12:00,
2013-07-21 09:17:00,76.0,72.9,29.77,NNE,30,0.0,0.0,90,0.00,,,0.00,VWS V14.01,2013-07-21 13:17:00,
2013-07-21 09:22:00,76.1,73.0,29.78,NNE,30,0.0,0.0,90,0.00,,,0.00,VWS V14.01,2013-07-21 13:22:00,
2013-07-21 09:27:00,76.2,73.1,29.78,NNE,30,2.0,3.0,90,0.00,,,0.00,VWS V14.01,2013-07-21 13:27:00,
2013-07-21 09:32:00,76.3,72.8,29.78,NNE,30,2.0,4.0,89,0.00,,,0.00,VWS V14.01,2013-07-21 13:32:00,
2013-07-21 09:37:00,76.4,72.9,29.78,NNE,30,0.0,0.0,89,0.00,,,0.00,VWS V14.01,2013-07-21 13:37:00,
2013-07-21 09:42:00,76.5,73.0,29.78,NNE,30,0.0,0.0,89,0.00,,,0.00,VWS V14.01,2013-07-21 13:42:00,
2013-07-21 09:47:00,76.6,73.1,29.78,NNE,29,0.0,1.0,89,0.00,,,0.00,VWS V14.01,2013-07-21 13:47:00,
2013-07-21 09:52:00,76.6,73.1,29.78,NNE,30,0.0,0.0,89,0.00,,,0.00,VWS V14.01,2013-07-21 13:52:00,
2013-07-21 09:57:00,76.8,73.3,29.78,NNE,29,1.0,4.0,89,0.00,,,0.00,VWS V14.01,2013-07-21 13:57:00,
2013-07-21 10:02:00,77.0,73.5,29.79,NNE,29,1.0,1.0,89,0.00,,,0.00,VWS V14.01,2013-07-21 14:02:00,
2013-07-21 10:07:00,77.1,73.6,29.79,NNE,30,1.0,1.0,89,0.00,,,0.00,VWS V14.01,2013-07-21 14:07:00,
2013-07-21 10:12:00,77.3,73.8,29.79,NNE,29,0.0,3.0,89,0.00,,,0.00,VWS V14.01,2013-07-21 14:12:00,
2013-07-21 10:17:00,77.3,73.8,29.79,NNE,30,1.0,2.0,89,0.00,,,0.00,VWS V14.01,2013-07-21 14:17:00,
2013-07-21 10:22:00,77.6,73.4,29.79,NNE,28,1.0,2.0,87,0.00,,,0.00,VWS V14.01,2013-07-21 14:22:00,
2013-07-21 10:27:00,77.7,73.5,29.79,NNE,15,3.0,3.0,87,0.00,,,0.00,VWS V14.01,2013-07-21 14:27:00,
2013-07-21 10:32:00,78.0,73.5,29.79,NNE,15,0.0,1.0,86,0.00,,,0.00,VWS V14.01,2013-07-21 14:32:00,
2013-07-21 10:37:00,78.5,73.6,29.79,SSE,165,2.0,3.0,85,0.00,,,0.00,VWS V14.01,2013-07-21 14:37:00,
2013-07-21 10:42:00,78.5,73.3,29.79,South,182,0.0,2.0,84,0.00,,,0.00,VWS V14.01,2013-07-21 14:42:00,
2013-07-21 10:47:00,78.4,73.5,29.80,South,186,0.0,1.0,85,0.00,,,0.00,VWS V14.01,2013-07-21 14:47:00,
2013-07-21 10:52:00,78.5,74.0,29.79,South,187,0.0,0.0,86,0.00,,,0.00,VWS V14.01,2013-07-21 14:52:00,
2013-07-21 10:57:00,78.7,73.8,29.79,South,187,3.0,3.0,85,0.00,,,0.00,VWS V14.01,2013-07-21 14:57:00,
2013-07-21 11:02:00,79.0,73.8,29.79,South,187,0.0,1.0,84,0.00,,,0.00,VWS V14.01,2013-07-21 15:02:00,
2013-07-21 11:07:00,79.2,73.6,29.79,South,188,0.0,0.0,83,0.00,,,0.00,VWS V14.01,2013-07-21 15:07:00,
2013-07-21 11:12:00,79.5,73.9,29.79,South,189,0.0,0.0,83,0.00,,,0.00,VWS V14.01,2013-07-21 15:12:00,
2013-07-21 11:17:00,79.9,74.3,29.79,South,189,0.0,1.0,83,0.00,,,0.00,VWS V14.01,2013-07-21 15:17:00,
2013-07-21 11:22:00,80.5,74.1,29.79,South,189,1.0,2.0,81,0.00,,,0.00,VWS V14.01,2013-07-21 15:22:00,
2013-07-21 11:27:00,80.4,73.3,29.79,South,189,2.0,2.0,79,0.00,,,0.00,VWS V14.01,2013-07-21 15:27:00,
2013-07-21 11:33:00,80.2,73.8,29.79,South,188,1.0,2.0,81,0.00,,,0.00,VWS V14.01,2013-07-21 15:33:00,
2013-07-21 11:38:00,80.3,73.2,29.79,South,189,1.0,2.0,79,0.00,,,0.00,VWS V14.01,2013-07-21 15:38:00,
2013-07-21 11:43:00,80.9,74.5,29.79,South,190,2.0,2.0,81,0.00,,,0.00,VWS V14.01,2013-07-21 15:43:00,
2013-07-21 11:48:00,81.4,74.3,29.79,South,189,0.0,0.0,79,0.00,,,0.00,VWS V14.01,2013-07-21 15:48:00,
2013-07-21 11:53:00,81.6,74.8,29.79,SSW,195,4.0,4.0,80,0.00,,,0.00,VWS V14.01,2013-07-21 15:53:00,
2013-07-21 11:58:00,81.6,75.2,29.79,SSW,205,7.0,9.0,81,0.00,,,0.00,VWS V14.01,2013-07-21 15:58:00,
2013-07-21 12:03:00,81.3,74.2,29.79,SW,223,3.0,5.0,79,0.00,,,0.00,VWS V14.01,2013-07-21 16:03:00,
2013-07-21 12:08:00,81.0,73.5,29.79,WSW,239,3.0,6.0,78,0.00,,,0.00,VWS V14.01,2013-07-21 16:08:00,
2013-07-21 12:13:00,80.9,74.2,29.79,WSW,242,4.0,5.0,80,0.00,,,0.00,VWS V14.01,2013-07-21 16:13:00,
2013-07-21 12:18:00,81.0,74.2,29.79,SW,220,4.0,6.0,80,0.00,,,0.00,VWS V14.01,2013-07-21 16:18:00,
2013-07-21 12:23:00,80.8,73.3,29.79,SW,232,4.0,7.0,78,0.00,,,0.00,VWS V14.01,2013-07-21 16:23:00,
2013-07-21 12:28:00,80.6,73.9,29.79,SW,231,6.0,6.0,80,0.00,,,0.00,VWS V14.01,2013-07-21 16:28:00,
2013-07-21 12:33:00,80.4,73.7,29.79,SW,227,1.0,3.0,80,0.00,,,0.00,VWS V14.01,2013-07-21 16:33:00,
2013-07-21 12:38:00,80.3,73.6,29.79,SW,232,2.0,3.0,80,0.00,,,0.00,VWS V14.01,2013-07-21 16:38:00,
2013-07-21 12:43:00,80.1,73.8,29.79,SSW,207,4.0,6.0,81,0.00,,,0.00,VWS V14.01,2013-07-21 16:43:00,
2013-07-21 12:48:00,79.8,73.8,29.78,SW,223,0.0,0.0,82,0.00,,,0.00,VWS V14.01,2013-07-21 16:48:00,